Capitol Logistics 286


KAFW
Fort Worth Alliance Airport
Fort Worth, Texas, US
KSEA
Seattle-Tacoma International Airport
Seattle, Washington, US

Activity Log

Date Flight Route Aircraft Duration
04/14/2020 CPX286 SWABR5 HUDAD PNH ALS JNC TCH TWF BKE PDT CHINS3 B763 4h 19m

Route Details

Aircraft Information
Primary: Boeing 767-300BDSF
Backup: Not Available
Route Data
Distance: 1428nm
Sched. Duration: 3h 45m
Avg. Duration: 4h 19m (+74m)
Times Flown: 1
Recm'd Route: SWABR5 HUDAD PNH ALS JNC TCH TWF BKE PDT CHINS3
Planned Altitude: 34,000ft
Origin Wx: KAFW 231717Z 07008KT 2 1/2SM -DZ BR BKN003 OVC007 10/09 A3010 RMK AO2 TWR VIS 3 CIG 002V005 P0000 T01000089
Dest. Wx: KSEA 231653Z 14005KT 10SM FEW002 00/M02 A3014 RMK AO2 SLP218 T00001017
Notes:

Financial History
Total Freight: 105,124lbs
Average Load: 105,124lbs/flt
Fuel Used: 44,540lbs
Avg. Fuel Used: 44,540lbs/flt
Fuel Expense: $36,077
Avg. Fuel Expense: $36,077
Avg. Fuel Cost: $0.81/lbs
Total Gross Income: $149,276
Pilot Pay: $239
Total Expenses: $16,174
Total Revenue: $96,023
Average Revenue: $149,276.08